Cork, Ireland

1:23 PM IST on August 22, 2017 (GMT +0100)
Cork

Weather History for EICK - December, 2013

Change the Weather History Date:

Wednesday, December 4, 2013

  Actual Average Record
Temperature  
Mean Temperature 40 °F -  
Max Temperature 46 °F 47 °F 55 °F (2006)
Min Temperature 35 °F 38 °F 30 °F (1997)
Degree Days  
Heating Degree Days 24    
Moisture  
Dew Point 37 °F    
Average Humidity 85    
Maximum Humidity 100    
Minimum Humidity 69    
Precipitation  
Precipitation 0.00 in 0.18 in - ()
Sea Level Pressure  
Sea Level Pressure 30.51 in    
Wind  
Wind Speed 10 mph ()    
Max Wind Speed 22 mph    
Max Gust Speed -    
Visibility 6.2 miles    
Events Rain    
Averages and records for this station are not official NWS values.
T = Trace of Precipitation, MM = Missing Value Source: Averaged Metar Reports

Daily Weather History Graph

Daily Weather History Graph

Search for Another Location

Airport or City:

Trip Planner

Search our weather history database for the weather conditions in past years. The results will help you decide how hot, cold, wet, or windy it might be!

Date:

Astronomy

Dec. 04, 2013 Rise Set
Actual Time 8:23 AM GMT 4:25 PM GMT
Civil Twilight 7:43 AM GMT 5:04 PM GMT
Nautical Twilight 7:00 AM GMT 5:47 PM GMT
Astronomical Twilight 6:19 AM GMT 6:28 PM GMT
Moon 9:34 AM GMT (12/4) 6:25 PM GMT (12/4)
Length of Visible Light 9h 21m
Length of Day
8h 01m
Waxing Crescent, 3% of the Moon is Illuminated
Dec 4
Waxing Crescent
Dec 9
First Quarter
Dec 17
Full
Dec 25
Last Quarter
Jan 1
New

Hourly Weather History & Observations

Time (GMT) Temp. Windchill Dew Point Humidity Pressure Visibility Wind Dir Wind Speed Gust Speed Precip Events Conditions
12:00 AM 49 °F - 48 °F 97% 30.34 in 4 mi West 8.9 mph - - Rain Light Rain
12:00 AM 48.2 °F - 48.2 °F 100% 30.33 in 3.7 mi West 8.1 mph - N/A Rain Light Rain
12:30 AM 44.6 °F 36.6 °F 42.8 °F 93% 30.33 in 5.6 mi NNW 19.6 mph - N/A   Mostly Cloudy
1:00 AM 42.8 °F 33.8 °F 42.8 °F 100% 30.36 in 6.2 mi NNW 21.9 mph - N/A   Mostly Cloudy
1:30 AM 42.8 °F 34.5 °F 41.0 °F 93% 30.36 in 6.2 mi North 18.4 mph - N/A   Mostly Cloudy
2:00 AM 42.8 °F 34.8 °F 39.2 °F 87% 30.36 in 6.2 mi North 17.3 mph - N/A   Mostly Cloudy
2:30 AM 42.8 °F 34.3 °F 39.2 °F 87% 30.36 in 6.2 mi NNW 19.6 mph - N/A   Mostly Cloudy
3:00 AM 42.8 °F 34.8 °F 39.2 °F 87% 30.39 in 6.2 mi North 17.3 mph - N/A   Mostly Cloudy
3:30 AM 42.8 °F 35.4 °F 39.2 °F 87% 30.39 in 6.2 mi North 15.0 mph - N/A   Mostly Cloudy
4:00 AM 42.8 °F 35.8 °F 37.4 °F 81% 30.39 in 6.2 mi North 13.8 mph - N/A   Mostly Cloudy
4:30 AM 41.0 °F 33.5 °F 37.4 °F 87% 30.42 in 6.2 mi NNW 13.8 mph - N/A   Mostly Cloudy
5:00 AM 41.0 °F 33.5 °F 37.4 °F 87% 30.42 in 6.2 mi NNW 13.8 mph - N/A   Mostly Cloudy
5:30 AM 39.2 °F 32.0 °F 37.4 °F 93% 30.42 in 6.2 mi NNW 11.5 mph - N/A   Scattered Clouds
6:00 AM 40 °F - 36 °F 81% 30.48 in 12 mi North 8.9 mph - -   Partly Cloudy
6:00 AM 39.2 °F 33.0 °F 35.6 °F 87% 30.45 in 6.2 mi North 9.2 mph - N/A   Scattered Clouds
6:30 AM 39.2 °F 33.0 °F 35.6 °F 87% 30.45 in 6.2 mi North 9.2 mph - N/A   Scattered Clouds
7:00 AM 39.2 °F 32.0 °F 37.4 °F 93% 30.45 in 6.2 mi NNW 11.5 mph - N/A   Mostly Cloudy
7:30 AM 39.2 °F 34.2 °F 35.6 °F 87% 30.48 in 6.2 mi NNW 6.9 mph - N/A   Scattered Clouds
8:00 AM 39.2 °F 35.0 °F 35.6 °F 87% 30.48 in 6.2 mi NNW 5.8 mph - N/A   Scattered Clouds
8:30 AM 39.2 °F 35.0 °F 35.6 °F 87% 30.51 in 6.2 mi NW 5.8 mph - N/A   Scattered Clouds
9:00 AM 37.4 °F 34.9 °F 35.6 °F 93% 30.51 in 6.2 mi West 3.5 mph - N/A   Scattered Clouds
9:30 AM 39.2 °F 35.9 °F 35.6 °F 87% 30.54 in 6.2 mi NW 4.6 mph - N/A   Scattered Clouds
10:00 AM 39.2 °F 35.0 °F 35.6 °F 87% 30.54 in 6.2 mi WNW 5.8 mph - N/A   Partly Cloudy
10:30 AM 39.2 °F 34.2 °F 35.6 °F 87% 30.57 in 6.2 mi WNW 6.9 mph - N/A   Partly Cloudy
11:00 AM 41.0 °F 37.1 °F 37.4 °F 87% 30.57 in 6.2 mi WNW 5.8 mph - N/A   Partly Cloudy
11:30 AM 42.8 °F 38.6 °F 37.4 °F 81% 30.57 in 6.2 mi WNW 6.9 mph - N/A   Partly Cloudy
12:00 PM 44 °F - 37 °F 69% 30.59 in 31 mi WNW 6.7 mph - -   Scattered Clouds
12:00 PM 42.8 °F 38.6 °F 37.4 °F 81% 30.57 in 6.2 mi WNW 6.9 mph - N/A   Partly Cloudy
12:30 PM 44.6 °F 40.7 °F 37.4 °F 76% 30.57 in 6.2 mi West 6.9 mph - N/A   Partly Cloudy
1:00 PM 44.6 °F 40.7 °F 37.4 °F 76% 30.57 in 6.2 mi West 6.9 mph - N/A   Partly Cloudy
1:30 PM 46.4 °F 42.4 °F 37.4 °F 71% 30.57 in 6.2 mi WNW 8.1 mph - N/A   Partly Cloudy
2:00 PM 46.4 °F 41.5 °F 37.4 °F 71% 30.57 in 6.2 mi NW 10.4 mph - N/A   Mostly Cloudy
2:30 PM 44.6 °F 38.8 °F 37.4 °F 76% 30.57 in 6.2 mi NW 11.5 mph - N/A   Scattered Clouds
3:00 PM 44.6 °F 39.2 °F 37.4 °F 76% 30.57 in 6.2 mi NW 10.4 mph - N/A   Scattered Clouds
3:30 PM 42.8 °F 38.0 °F 37.4 °F 81% 30.57 in 6.2 mi NW 8.1 mph - N/A   Partly Cloudy
4:00 PM 42.8 °F 38.0 °F 37.4 °F 81% 30.57 in 6.2 mi WNW 8.1 mph - N/A   Partly Cloudy
4:30 PM 42.8 °F 39.3 °F 37.4 °F 81% 30.57 in 6.2 mi West 5.8 mph - N/A   Scattered Clouds
5:00 PM 42.8 °F 38.6 °F 35.6 °F 76% 30.57 in 6.2 mi WNW 6.9 mph - N/A   Partly Cloudy
5:30 PM 39.2 °F 37.0 °F 35.6 °F 87% 30.57 in 6.2 mi WSW 3.5 mph - N/A   Partly Cloudy
6:00 PM 40 °F - 36 °F 81% 30.62 in 25 mi West 8.9 mph - -   Scattered Clouds
6:00 PM 39.2 °F 33.6 °F 35.6 °F 87% 30.57 in 6.2 mi West 8.1 mph - N/A   Partly Cloudy
6:30 PM 39.2 °F 35.0 °F 35.6 °F 87% 30.57 in 6.2 mi West 5.8 mph - N/A   Partly Cloudy
7:00 PM 39.2 °F 35.0 °F 35.6 °F 87% 30.57 in 6.2 mi West 5.8 mph - N/A   Partly Cloudy
7:30 PM 35.6 °F 29.9 °F 32.0 °F 87% 30.60 in 6.2 mi SW 6.9 mph - N/A   Partly Cloudy
8:00 PM 39.2 °F 33.0 °F 33.8 °F 81% 30.57 in 6.2 mi WSW 9.2 mph - N/A   Partly Cloudy
8:30 PM 39.2 °F 32.5 °F 33.8 °F 81% 30.57 in 6.2 mi West 10.4 mph - N/A   Partly Cloudy
9:00 PM 37.4 °F 30.8 °F 33.8 °F 87% 30.57 in 6.2 mi WSW 9.2 mph - N/A   Partly Cloudy
9:30 PM 39.2 °F 32.5 °F 33.8 °F 81% 30.54 in 6.2 mi WSW 10.4 mph - N/A   Partly Cloudy
10:00 PM 39.2 °F 32.0 °F 33.8 °F 81% 30.57 in 6.2 mi West 11.5 mph - N/A   Partly Cloudy
10:30 PM 39.2 °F 32.0 °F 33.8 °F 81% 30.57 in 6.2 mi WSW 11.5 mph - N/A   Partly Cloudy
11:00 PM 35.6 °F 28.0 °F 33.8 °F 93% 30.54 in 6.2 mi WSW 10.4 mph - N/A   Partly Cloudy
11:30 PM 35.6 °F 28.0 °F 33.8 °F 93% 30.54 in 6.2 mi WSW 10.4 mph - N/A   Partly Cloudy